sat.trackr.live / text

‹ back to catalog

STARLINK-30487

NORAD 57924 · 2023-147M

PAYLOAD ACTIVE UNKNOWN

§ Identity

Operator
Country
US
Launch date
2023-09-24
Launch site
AFETR
Launch vehicle
Mass (kg)
RCS (m²)

Purposes: comms

External: N2YO · Heavens-Above · Gunter

§ Orbital elements

Epoch: 2026-05-24T18:50:05.995968Z

Period
94.27 min
Inclination
43.0021°
Eccentricity
0.0002529
Mean motion
15.27596905 rev/d
Perigee alt
481.3 km
Apogee alt
484.7 km
Semi-major
6,861.1 km
B*
1.5596e-4
RAAN
259.0298°
Arg perigee
254.7600°
Mean anomaly
105.2972°
Rev number
14,822

§ Raw data

STARLINK-304871 57924U 23147M   26144.78479162  .00004034  00000+0  15596-3 0  99942 57924  43.0021 259.0298 0002529 254.7600 105.2972 15.27596905148228

JSON: /api/v1/satellites/57924 · /tle

For live sub-satellite position, see the globe view (requires WebGL).

§ Visibility from observer

Set your observer location to see the next 7 days of passes ≥ 10°. The values pass through the URL so the page stays shareable.

No JS? Fill the form by hand. The geolocation button needs JavaScript.